Polinya, Spain
Current Conditions -  °F | °C
As of 10:30 AM on Monday 24 Nov 2014 (Local Time) from LELL Reporting Station
Few Clouds Few Clouds  
Wind Chill: 64°   Ceiling: Unl
Heat Index: 64°   Visibility: 6mi
Dew Point: 57°   Wind: 3mph
Humidity: 77%   Direction: 40°NE
Pressure: 30.06"   Gusts: NA
Location:  41.55°N, 2.15°E
Report Text: LELL 240930Z 04003KT 340V080 9999 FEW020 18/14 Q1018
Loading
Personal Weather Stations






























Interactive Weather Map New forecast layout! Learn more

10-Day Weather Forecast

Advertisements
Track Severe Weather on mobile